owner,sensor,date,latitude,longitude,relative_humidity,qcFlag 
DISL,ioos:station:DISL:PPTA:1,2017-04-01T00:00:00Z,30.2791,-87.5561,62.56,1111122 
DISL,ioos:station:DISL:PPTA:1,2017-04-01T00:30:00Z,30.2791,-87.5561,65.98,1111122 
DISL,ioos:station:DISL:PPTA:1,2017-04-01T01:00:00Z,30.2791,-87.5561,67.79,1111122 
DISL,ioos:station:DISL:PPTA:1,2017-04-01T01:30:00Z,30.2791,-87.5561,69.93,1111122 
DISL,ioos:station:DISL:PPTA:1,2017-04-01T02:00:00Z,30.2791,-87.5561,69.42,1111122 
DISL,ioos:station:DISL:PPTA:1,2017-04-01T02:30:00Z,30.2791,-87.5561,70.24,1111122 
DISL,ioos:station:DISL:PPTA:1,2017-04-01T03:00:00Z,30.2791,-87.5561,74.59,1111122 
DISL,ioos:station:DISL:PPTA:1,2017-04-01T03:30:00Z,30.2791,-87.5561,76.57,1111122 
DISL,ioos:station:DISL:PPTA:1,2017-04-01T04:00:00Z,30.2791,-87.5561,77.09,1111122 
DISL,ioos:station:DISL:PPTA:1,2017-04-01T04:30:00Z,30.2791,-87.5561,79.21,1111122 
DISL,ioos:station:DISL:PPTA:1,2017-04-01T05:00:00Z,30.2791,-87.5561,79.79,1111122 
DISL,ioos:station:DISL:PPTA:1,2017-04-01T05:30:00Z,30.2791,-87.5561,78.12,1111122 
DISL,ioos:station:DISL:PPTA:1,2017-04-01T06:00:00Z,30.2791,-87.5561,74.16,1111122 
DISL,ioos:station:DISL:PPTA:1,2017-04-01T06:30:00Z,30.2791,-87.5561,79.62,1111122 
DISL,ioos:station:DISL:PPTA:1,2017-04-01T07:00:00Z,30.2791,-87.5561,84.3,1111122 
DISL,ioos:station:DISL:PPTA:1,2017-04-01T07:30:00Z,30.2791,-87.5561,88.3,1111122 
DISL,ioos:station:DISL:PPTA:1,2017-04-01T08:00:00Z,30.2791,-87.5561,89.7,1111122 
DISL,ioos:station:DISL:PPTA:1,2017-04-01T08:30:00Z,30.2791,-87.5561,90.8,1111122 
DISL,ioos:station:DISL:PPTA:1,2017-04-01T09:00:00Z,30.2791,-87.5561,91.9,1111122 
DISL,ioos:station:DISL:PPTA:1,2017-04-01T09:30:00Z,30.2791,-87.5561,93.4,1111122 
DISL,ioos:station:DISL:PPTA:1,2017-04-01T10:00:00Z,30.2791,-87.5561,95.0,1111122 
DISL,ioos:station:DISL:PPTA:1,2017-04-01T10:30:00Z,30.2791,-87.5561,95.8,1111122 
DISL,ioos:station:DISL:PPTA:1,2017-04-01T11:00:00Z,30.2791,-87.5561,95.8,1111122 
DISL,ioos:station:DISL:PPTA:1,2017-04-01T11:30:00Z,30.2791,-87.5561,95.3,1111122 
DISL,ioos:station:DISL:PPTA:1,2017-04-01T12:00:00Z,30.2791,-87.5561,94.4,1111122 
DISL,ioos:station:DISL:PPTA:1,2017-04-01T12:30:00Z,30.2791,-87.5561,90.4,1111122 
DISL,ioos:station:DISL:PPTA:1,2017-04-01T13:00:00Z,30.2791,-87.5561,83.7,1111122 
DISL,ioos:station:DISL:PPTA:1,2017-04-01T13:30:00Z,30.2791,-87.5561,80.3,1111122 
DISL,ioos:station:DISL:PPTA:1,2017-04-01T14:00:00Z,30.2791,-87.5561,75.57,1111122 
DISL,ioos:station:DISL:PPTA:1,2017-04-01T14:30:00Z,30.2791,-87.5561,68.08,1111122 
DISL,ioos:station:DISL:PPTA:1,2017-04-01T15:00:00Z,30.2791,-87.5561,72.85,1111122 
DISL,ioos:station:DISL:PPTA:1,2017-04-01T15:30:00Z,30.2791,-87.5561,67.03,1111122 
DISL,ioos:station:DISL:PPTA:1,2017-04-01T16:00:00Z,30.2791,-87.5561,67.91,1111122 
DISL,ioos:station:DISL:PPTA:1,2017-04-01T16:30:00Z,30.2791,-87.5561,58.11,1111122 
DISL,ioos:station:DISL:PPTA:1,2017-04-01T17:00:00Z,30.2791,-87.5561,54.57,1111122 
DISL,ioos:station:DISL:PPTA:1,2017-04-01T17:30:00Z,30.2791,-87.5561,56.13,1111122 
DISL,ioos:station:DISL:PPTA:1,2017-04-01T18:00:00Z,30.2791,-87.5561,54.87,1111122 
DISL,ioos:station:DISL:PPTA:1,2017-04-01T18:30:00Z,30.2791,-87.5561,53.75,1111122 
DISL,ioos:station:DISL:PPTA:1,2017-04-01T19:00:00Z,30.2791,-87.5561,50.97,1111122 
DISL,ioos:station:DISL:PPTA:1,2017-04-01T19:30:00Z,30.2791,-87.5561,55.95,1111122 
DISL,ioos:station:DISL:PPTA:1,2017-04-01T20:00:00Z,30.2791,-87.5561,55.2,1111122 
DISL,ioos:station:DISL:PPTA:1,2017-04-01T20:30:00Z,30.2791,-87.5561,57.79,1111122 
DISL,ioos:station:DISL:PPTA:1,2017-04-01T21:00:00Z,30.2791,-87.5561,60.91,1111122 
DISL,ioos:station:DISL:PPTA:1,2017-04-01T21:30:00Z,30.2791,-87.5561,64.39,1111122 
DISL,ioos:station:DISL:PPTA:1,2017-04-01T22:00:00Z,30.2791,-87.5561,65.55,1111122 
DISL,ioos:station:DISL:PPTA:1,2017-04-01T22:30:00Z,30.2791,-87.5561,66.71,1111122 
DISL,ioos:station:DISL:PPTA:1,2017-04-01T23:00:00Z,30.2791,-87.5561,66.58,1111122 
DISL,ioos:station:DISL:PPTA:1,2017-04-01T23:30:00Z,30.2791,-87.5561,67.26,1111122 
DISL,ioos:station:DISL:PPTA:1,2017-04-02T00:00:00Z,30.2791,-87.5561,72.76,1111122 
DISL,ioos:station:DISL:PPTA:1,2017-04-02T00:30:00Z,30.2791,-87.5561,73.72,1111122 
DISL,ioos:station:DISL:PPTA:1,2017-04-02T01:00:00Z,30.2791,-87.5561,73.69,1111122 
DISL,ioos:station:DISL:PPTA:1,2017-04-02T01:30:00Z,30.2791,-87.5561,79.26,1111122 
DISL,ioos:station:DISL:PPTA:1,2017-04-02T02:00:00Z,30.2791,-87.5561,78.45,1111122 
DISL,ioos:station:DISL:PPTA:1,2017-04-02T02:30:00Z,30.2791,-87.5561,81.3,1111122 
DISL,ioos:station:DISL:PPTA:1,2017-04-02T03:00:00Z,30.2791,-87.5561,83.7,1111122 
DISL,ioos:station:DISL:PPTA:1,2017-04-02T03:30:00Z,30.2791,-87.5561,85.5,1111122 
DISL,ioos:station:DISL:PPTA:1,2017-04-02T04:00:00Z,30.2791,-87.5561,87.8,1111122 
DISL,ioos:station:DISL:PPTA:1,2017-04-02T04:30:00Z,30.2791,-87.5561,87.4,1111122 
DISL,ioos:station:DISL:PPTA:1,2017-04-02T05:00:00Z,30.2791,-87.5561,88.8,1111122 
DISL,ioos:station:DISL:PPTA:1,2017-04-02T05:30:00Z,30.2791,-87.5561,84.3,1111122 
DISL,ioos:station:DISL:PPTA:1,2017-04-02T06:00:00Z,30.2791,-87.5561,84.2,1111122 
DISL,ioos:station:DISL:PPTA:1,2017-04-02T06:30:00Z,30.2791,-87.5561,84.4,1111122 
DISL,ioos:station:DISL:PPTA:1,2017-04-02T07:00:00Z,30.2791,-87.5561,84.3,1111122 
DISL,ioos:station:DISL:PPTA:1,2017-04-02T07:30:00Z,30.2791,-87.5561,83.2,1111122 
DISL,ioos:station:DISL:PPTA:1,2017-04-02T08:00:00Z,30.2791,-87.5561,83.0,1111122 
DISL,ioos:station:DISL:PPTA:1,2017-04-02T08:30:00Z,30.2791,-87.5561,84.0,1111122 
DISL,ioos:station:DISL:PPTA:1,2017-04-02T09:00:00Z,30.2791,-87.5561,82.7,1111122 
DISL,ioos:station:DISL:PPTA:1,2017-04-02T09:30:00Z,30.2791,-87.5561,81.7,1111122 
DISL,ioos:station:DISL:PPTA:1,2017-04-02T10:00:00Z,30.2791,-87.5561,83.2,1111122 
DISL,ioos:station:DISL:PPTA:1,2017-04-02T10:30:00Z,30.2791,-87.5561,83.8,1111122 
DISL,ioos:station:DISL:PPTA:1,2017-04-02T11:00:00Z,30.2791,-87.5561,83.5,1111122 
DISL,ioos:station:DISL:PPTA:1,2017-04-02T11:30:00Z,30.2791,-87.5561,84.3,1111122 
DISL,ioos:station:DISL:PPTA:1,2017-04-02T12:00:00Z,30.2791,-87.5561,84.6,1111122 
DISL,ioos:station:DISL:PPTA:1,2017-04-02T12:30:00Z,30.2791,-87.5561,83.1,1111122 
DISL,ioos:station:DISL:PPTA:1,2017-04-02T13:00:00Z,30.2791,-87.5561,82.7,1111122 
DISL,ioos:station:DISL:PPTA:1,2017-04-02T13:30:00Z,30.2791,-87.5561,86.2,1111122 
DISL,ioos:station:DISL:PPTA:1,2017-04-02T14:00:00Z,30.2791,-87.5561,84.5,1111122 
DISL,ioos:station:DISL:PPTA:1,2017-04-02T14:30:00Z,30.2791,-87.5561,85.5,1111122 
DISL,ioos:station:DISL:PPTA:1,2017-04-02T15:00:00Z,30.2791,-87.5561,85.0,1111122 
DISL,ioos:station:DISL:PPTA:1,2017-04-02T15:30:00Z,30.2791,-87.5561,84.2,1111122 
DISL,ioos:station:DISL:PPTA:1,2017-04-02T16:00:00Z,30.2791,-87.5561,85.4,1111122 
DISL,ioos:station:DISL:PPTA:1,2017-04-02T16:30:00Z,30.2791,-87.5561,83.5,1111122 
DISL,ioos:station:DISL:PPTA:1,2017-04-02T17:00:00Z,30.2791,-87.5561,83.0,1111122 
DISL,ioos:station:DISL:PPTA:1,2017-04-02T17:30:00Z,30.2791,-87.5561,82.9,1111122 
DISL,ioos:station:DISL:PPTA:1,2017-04-02T18:00:00Z,30.2791,-87.5561,81.4,1111122 
DISL,ioos:station:DISL:PPTA:1,2017-04-02T18:30:00Z,30.2791,-87.5561,83.9,1111122 
DISL,ioos:station:DISL:PPTA:1,2017-04-02T19:00:00Z,30.2791,-87.5561,86.1,1111122 
DISL,ioos:station:DISL:PPTA:1,2017-04-02T19:30:00Z,30.2791,-87.5561,80.7,1111122 
DISL,ioos:station:DISL:PPTA:1,2017-04-02T20:00:00Z,30.2791,-87.5561,78.37,1111122 
DISL,ioos:station:DISL:PPTA:1,2017-04-02T20:30:00Z,30.2791,-87.5561,77.9,1111122 
DISL,ioos:station:DISL:PPTA:1,2017-04-02T21:00:00Z,30.2791,-87.5561,77.59,1111122 
DISL,ioos:station:DISL:PPTA:1,2017-04-02T21:30:00Z,30.2791,-87.5561,79.16,1111122 
DISL,ioos:station:DISL:PPTA:1,2017-04-02T22:00:00Z,30.2791,-87.5561,80.9,1111122 
DISL,ioos:station:DISL:PPTA:1,2017-04-02T22:30:00Z,30.2791,-87.5561,81.7,1111122 
DISL,ioos:station:DISL:PPTA:1,2017-04-02T23:00:00Z,30.2791,-87.5561,81.4,1111122 
DISL,ioos:station:DISL:PPTA:1,2017-04-02T23:30:00Z,30.2791,-87.5561,81.3,1111122 
DISL,ioos:station:DISL:PPTA:1,2017-04-03T00:00:00Z,30.2791,-87.5561,82.7,1111122 
DISL,ioos:station:DISL:PPTA:1,2017-04-03T00:30:00Z,30.2791,-87.5561,84.4,1111122 
DISL,ioos:station:DISL:PPTA:1,2017-04-03T01:00:00Z,30.2791,-87.5561,86.6,1111122 
DISL,ioos:station:DISL:PPTA:1,2017-04-03T01:30:00Z,30.2791,-87.5561,88.5,1111122 
DISL,ioos:station:DISL:PPTA:1,2017-04-03T02:00:00Z,30.2791,-87.5561,89.9,1111122 
DISL,ioos:station:DISL:PPTA:1,2017-04-03T02:30:00Z,30.2791,-87.5561,90.9,1111122 
DISL,ioos:station:DISL:PPTA:1,2017-04-03T03:00:00Z,30.2791,-87.5561,91.7,1111122 
DISL,ioos:station:DISL:PPTA:1,2017-04-03T03:30:00Z,30.2791,-87.5561,92.0,1111122 
DISL,ioos:station:DISL:PPTA:1,2017-04-03T04:00:00Z,30.2791,-87.5561,92.6,1111122 
DISL,ioos:station:DISL:PPTA:1,2017-04-03T04:30:00Z,30.2791,-87.5561,93.7,1111122 
DISL,ioos:station:DISL:PPTA:1,2017-04-03T05:00:00Z,30.2791,-87.5561,94.6,1111122 
DISL,ioos:station:DISL:PPTA:1,2017-04-03T05:30:00Z,30.2791,-87.5561,94.9,1111122 
DISL,ioos:station:DISL:PPTA:1,2017-04-03T06:00:00Z,30.2791,-87.5561,95.5,1111122 
DISL,ioos:station:DISL:PPTA:1,2017-04-03T06:30:00Z,30.2791,-87.5561,95.5,1111122 
DISL,ioos:station:DISL:PPTA:1,2017-04-03T07:00:00Z,30.2791,-87.5561,95.4,1111122 
DISL,ioos:station:DISL:PPTA:1,2017-04-03T07:30:00Z,30.2791,-87.5561,95.3,1111122 
DISL,ioos:station:DISL:PPTA:1,2017-04-03T08:00:00Z,30.2791,-87.5561,95.5,1111122 
DISL,ioos:station:DISL:PPTA:1,2017-04-03T08:30:00Z,30.2791,-87.5561,95.6,1111122 
DISL,ioos:station:DISL:PPTA:1,2017-04-03T09:00:00Z,30.2791,-87.5561,95.1,1111122 
DISL,ioos:station:DISL:PPTA:1,2017-04-03T09:30:00Z,30.2791,-87.5561,94.1,1111122 
DISL,ioos:station:DISL:PPTA:1,2017-04-03T10:00:00Z,30.2791,-87.5561,94.7,1111122 
DISL,ioos:station:DISL:PPTA:1,2017-04-03T10:30:00Z,30.2791,-87.5561,93.9,1111122 
DISL,ioos:station:DISL:PPTA:1,2017-04-03T11:00:00Z,30.2791,-87.5561,94.0,1111122 
DISL,ioos:station:DISL:PPTA:1,2017-04-03T11:30:00Z,30.2791,-87.5561,93.1,1111122 
DISL,ioos:station:DISL:PPTA:1,2017-04-03T12:00:00Z,30.2791,-87.5561,93.1,1111122 
DISL,ioos:station:DISL:PPTA:1,2017-04-03T12:30:00Z,30.2791,-87.5561,93.4,1111122 
DISL,ioos:station:DISL:PPTA:1,2017-04-03T13:00:00Z,30.2791,-87.5561,93.5,1111122 
DISL,ioos:station:DISL:PPTA:1,2017-04-03T13:30:00Z,30.2791,-87.5561,93.9,1111122 
DISL,ioos:station:DISL:PPTA:1,2017-04-03T14:00:00Z,30.2791,-87.5561,94.2,1111122 
DISL,ioos:station:DISL:PPTA:1,2017-04-03T14:30:00Z,30.2791,-87.5561,88.5,1111122 
DISL,ioos:station:DISL:PPTA:1,2017-04-03T15:00:00Z,30.2791,-87.5561,94.6,1111122 
DISL,ioos:station:DISL:PPTA:1,2017-04-03T15:30:00Z,30.2791,-87.5561,96.8,1111122 
DISL,ioos:station:DISL:PPTA:1,2017-04-03T16:00:00Z,30.2791,-87.5561,99.0,1111122 
DISL,ioos:station:DISL:PPTA:1,2017-04-03T16:30:00Z,30.2791,-87.5561,98.4,1111122 
DISL,ioos:station:DISL:PPTA:1,2017-04-03T17:00:00Z,30.2791,-87.5561,96.9,1111122 
DISL,ioos:station:DISL:PPTA:1,2017-04-03T17:30:00Z,30.2791,-87.5561,95.7,1111122 
DISL,ioos:station:DISL:PPTA:1,2017-04-03T18:00:00Z,30.2791,-87.5561,94.0,1111122 
DISL,ioos:station:DISL:PPTA:1,2017-04-03T18:30:00Z,30.2791,-87.5561,93.6,1111122 
DISL,ioos:station:DISL:PPTA:1,2017-04-03T19:00:00Z,30.2791,-87.5561,92.3,1111122 
DISL,ioos:station:DISL:PPTA:1,2017-04-03T19:30:00Z,30.2791,-87.5561,93.9,1111122 
DISL,ioos:station:DISL:PPTA:1,2017-04-03T20:00:00Z,30.2791,-87.5561,89.6,1111122 
DISL,ioos:station:DISL:PPTA:1,2017-04-03T20:30:00Z,30.2791,-87.5561,88.8,1111122 
DISL,ioos:station:DISL:PPTA:1,2017-04-03T21:00:00Z,30.2791,-87.5561,89.4,1111122 
DISL,ioos:station:DISL:PPTA:1,2017-04-03T21:30:00Z,30.2791,-87.5561,87.6,1111122 
DISL,ioos:station:DISL:PPTA:1,2017-04-03T22:00:00Z,30.2791,-87.5561,88.0,1111122 
DISL,ioos:station:DISL:PPTA:1,2017-04-03T22:30:00Z,30.2791,-87.5561,87.5,1111122 
DISL,ioos:station:DISL:PPTA:1,2017-04-03T23:00:00Z,30.2791,-87.5561,87.3,1111122 
DISL,ioos:station:DISL:PPTA:1,2017-04-03T23:30:00Z,30.2791,-87.5561,88.2,1111122 
DISL,ioos:station:DISL:PPTA:1,2017-04-04T00:00:00Z,30.2791,-87.5561,91.3,1111122 
DISL,ioos:station:DISL:PPTA:1,2017-04-04T00:30:00Z,30.2791,-87.5561,92.9,1111122 
DISL,ioos:station:DISL:PPTA:1,2017-04-04T01:00:00Z,30.2791,-87.5561,94.6,1111122 
DISL,ioos:station:DISL:PPTA:1,2017-04-04T01:30:00Z,30.2791,-87.5561,95.4,1111122 
DISL,ioos:station:DISL:PPTA:1,2017-04-04T02:00:00Z,30.2791,-87.5561,96.1,1111122 
DISL,ioos:station:DISL:PPTA:1,2017-04-04T02:30:00Z,30.2791,-87.5561,96.7,1111122 
DISL,ioos:station:DISL:PPTA:1,2017-04-04T03:00:00Z,30.2791,-87.5561,97.3,1111122 
DISL,ioos:station:DISL:PPTA:1,2017-04-04T03:30:00Z,30.2791,-87.5561,97.8,1111122 
DISL,ioos:station:DISL:PPTA:1,2017-04-04T04:00:00Z,30.2791,-87.5561,98.3,1111122 
DISL,ioos:station:DISL:PPTA:1,2017-04-04T04:30:00Z,30.2791,-87.5561,98.7,1111122 
DISL,ioos:station:DISL:PPTA:1,2017-04-04T05:00:00Z,30.2791,-87.5561,99.0,1111122 
DISL,ioos:station:DISL:PPTA:1,2017-04-04T05:30:00Z,30.2791,-87.5561,99.3,1111122 
DISL,ioos:station:DISL:PPTA:1,2017-04-04T06:00:00Z,30.2791,-87.5561,99.4,1111122 
DISL,ioos:station:DISL:PPTA:1,2017-04-04T06:30:00Z,30.2791,-87.5561,99.4,1111122 
DISL,ioos:station:DISL:PPTA:1,2017-04-04T07:00:00Z,30.2791,-87.5561,99.4,1111122 
DISL,ioos:station:DISL:PPTA:1,2017-04-04T07:30:00Z,30.2791,-87.5561,99.4,1111122 
DISL,ioos:station:DISL:PPTA:1,2017-04-04T08:00:00Z,30.2791,-87.5561,99.4,1111122 
DISL,ioos:station:DISL:PPTA:1,2017-04-04T08:30:00Z,30.2791,-87.5561,99.4,1111122 
DISL,ioos:station:DISL:PPTA:1,2017-04-04T09:00:00Z,30.2791,-87.5561,99.4,1111122 
DISL,ioos:station:DISL:PPTA:1,2017-04-04T09:30:00Z,30.2791,-87.5561,99.3,1111122 
DISL,ioos:station:DISL:PPTA:1,2017-04-04T10:00:00Z,30.2791,-87.5561,99.3,1111122 
DISL,ioos:station:DISL:PPTA:1,2017-04-04T10:30:00Z,30.2791,-87.5561,99.3,1111122 
DISL,ioos:station:DISL:PPTA:1,2017-04-04T11:00:00Z,30.2791,-87.5561,99.3,1111122 
DISL,ioos:station:DISL:PPTA:1,2017-04-04T11:30:00Z,30.2791,-87.5561,99.4,1111122 
DISL,ioos:station:DISL:PPTA:1,2017-04-04T12:00:00Z,30.2791,-87.5561,99.4,1111122 
DISL,ioos:station:DISL:PPTA:1,2017-04-04T12:30:00Z,30.2791,-87.5561,99.4,1111122 
DISL,ioos:station:DISL:PPTA:1,2017-04-04T13:00:00Z,30.2791,-87.5561,99.3,1111122 
DISL,ioos:station:DISL:PPTA:1,2017-04-04T13:30:00Z,30.2791,-87.5561,99.3,1111122 
DISL,ioos:station:DISL:PPTA:1,2017-04-04T14:00:00Z,30.2791,-87.5561,99.4,1111122 
DISL,ioos:station:DISL:PPTA:1,2017-04-04T14:30:00Z,30.2791,-87.5561,93.8,1111122 
DISL,ioos:station:DISL:PPTA:1,2017-04-04T15:00:00Z,30.2791,-87.5561,86.5,1111122 
DISL,ioos:station:DISL:PPTA:1,2017-04-04T15:30:00Z,30.2791,-87.5561,84.1,1111122 
DISL,ioos:station:DISL:PPTA:1,2017-04-04T16:00:00Z,30.2791,-87.5561,84.2,1111122 
DISL,ioos:station:DISL:PPTA:1,2017-04-04T16:30:00Z,30.2791,-87.5561,84.8,1111122 
DISL,ioos:station:DISL:PPTA:1,2017-04-04T17:00:00Z,30.2791,-87.5561,85.5,1111122 
DISL,ioos:station:DISL:PPTA:1,2017-04-04T17:30:00Z,30.2791,-87.5561,85.7,1111122 
DISL,ioos:station:DISL:PPTA:1,2017-04-04T18:00:00Z,30.2791,-87.5561,81.0,1111122 
DISL,ioos:station:DISL:PPTA:1,2017-04-04T18:30:00Z,30.2791,-87.5561,79.58,1111122 
DISL,ioos:station:DISL:PPTA:1,2017-04-04T19:00:00Z,30.2791,-87.5561,81.9,1111122 
DISL,ioos:station:DISL:PPTA:1,2017-04-04T19:30:00Z,30.2791,-87.5561,81.0,1111122 
DISL,ioos:station:DISL:PPTA:1,2017-04-04T20:00:00Z,30.2791,-87.5561,77.22,1111122 
DISL,ioos:station:DISL:PPTA:1,2017-04-04T20:30:00Z,30.2791,-87.5561,74.8,1111122 
DISL,ioos:station:DISL:PPTA:1,2017-04-04T21:00:00Z,30.2791,-87.5561,74.56,1111122 
DISL,ioos:station:DISL:PPTA:1,2017-04-04T21:30:00Z,30.2791,-87.5561,72.99,1111122 
DISL,ioos:station:DISL:PPTA:1,2017-04-04T22:00:00Z,30.2791,-87.5561,69.82,1111122 
DISL,ioos:station:DISL:PPTA:1,2017-04-04T22:30:00Z,30.2791,-87.5561,73.53,1111122 
DISL,ioos:station:DISL:PPTA:1,2017-04-04T23:00:00Z,30.2791,-87.5561,77.63,1111122 
DISL,ioos:station:DISL:PPTA:1,2017-04-04T23:30:00Z,30.2791,-87.5561,82.1,1111122 
DISL,ioos:station:DISL:PPTA:1,2017-04-05T00:00:00Z,30.2791,-87.5561,85.5,1111122 
DISL,ioos:station:DISL:PPTA:1,2017-04-05T00:30:00Z,30.2791,-87.5561,88.3,1111122 
DISL,ioos:station:DISL:PPTA:1,2017-04-05T01:00:00Z,30.2791,-87.5561,90.5,1111122 
DISL,ioos:station:DISL:PPTA:1,2017-04-05T01:30:00Z,30.2791,-87.5561,94.2,1111122 
DISL,ioos:station:DISL:PPTA:1,2017-04-05T02:00:00Z,30.2791,-87.5561,95.9,1111122 
DISL,ioos:station:DISL:PPTA:1,2017-04-05T02:30:00Z,30.2791,-87.5561,96.2,1111122 
DISL,ioos:station:DISL:PPTA:1,2017-04-05T03:00:00Z,30.2791,-87.5561,96.4,1111122 
DISL,ioos:station:DISL:PPTA:1,2017-04-05T03:30:00Z,30.2791,-87.5561,98.5,1111122 
DISL,ioos:station:DISL:PPTA:1,2017-04-05T04:00:00Z,30.2791,-87.5561,98.5,1111122 
DISL,ioos:station:DISL:PPTA:1,2017-04-05T04:30:00Z,30.2791,-87.5561,98.3,1111122 
DISL,ioos:station:DISL:PPTA:1,2017-04-05T05:00:00Z,30.2791,-87.5561,98.9,1111122 
DISL,ioos:station:DISL:PPTA:1,2017-04-05T05:30:00Z,30.2791,-87.5561,99.3,1111122 
DISL,ioos:station:DISL:PPTA:1,2017-04-05T06:00:00Z,30.2791,-87.5561,99.3,1111122 
DISL,ioos:station:DISL:PPTA:1,2017-04-05T06:30:00Z,30.2791,-87.5561,99.4,1111122 
DISL,ioos:station:DISL:PPTA:1,2017-04-05T07:00:00Z,30.2791,-87.5561,99.3,1111122 
DISL,ioos:station:DISL:PPTA:1,2017-04-05T07:30:00Z,30.2791,-87.5561,99.4,1111122 
DISL,ioos:station:DISL:PPTA:1,2017-04-05T08:00:00Z,30.2791,-87.5561,99.3,1111122 
DISL,ioos:station:DISL:PPTA:1,2017-04-05T08:30:00Z,30.2791,-87.5561,99.3,1111122 
DISL,ioos:station:DISL:PPTA:1,2017-04-05T09:00:00Z,30.2791,-87.5561,99.4,1111122 
DISL,ioos:station:DISL:PPTA:1,2017-04-05T09:30:00Z,30.2791,-87.5561,99.4,1111122 
DISL,ioos:station:DISL:PPTA:1,2017-04-05T10:00:00Z,30.2791,-87.5561,99.4,1111122 
DISL,ioos:station:DISL:PPTA:1,2017-04-05T10:30:00Z,30.2791,-87.5561,99.4,1111122 
DISL,ioos:station:DISL:PPTA:1,2017-04-05T11:00:00Z,30.2791,-87.5561,99.4,1111122 
DISL,ioos:station:DISL:PPTA:1,2017-04-05T11:30:00Z,30.2791,-87.5561,99.4,1111122 
DISL,ioos:station:DISL:PPTA:1,2017-04-05T12:00:00Z,30.2791,-87.5561,99.4,1111122 
DISL,ioos:station:DISL:PPTA:1,2017-04-05T12:30:00Z,30.2791,-87.5561,99.2,1111122 
DISL,ioos:station:DISL:PPTA:1,2017-04-05T13:00:00Z,30.2791,-87.5561,98.7,1111122 
DISL,ioos:station:DISL:PPTA:1,2017-04-05T13:30:00Z,30.2791,-87.5561,98.4,1111122 
DISL,ioos:station:DISL:PPTA:1,2017-04-05T14:00:00Z,30.2791,-87.5561,96.6,1111122 
DISL,ioos:station:DISL:PPTA:1,2017-04-05T14:30:00Z,30.2791,-87.5561,94.6,1111122 
DISL,ioos:station:DISL:PPTA:1,2017-04-05T15:00:00Z,30.2791,-87.5561,95.4,1111122 
DISL,ioos:station:DISL:PPTA:1,2017-04-05T15:30:00Z,30.2791,-87.5561,95.7,1111122 
DISL,ioos:station:DISL:PPTA:1,2017-04-05T16:00:00Z,30.2791,-87.5561,95.8,1111122 
DISL,ioos:station:DISL:PPTA:1,2017-04-05T16:30:00Z,30.2791,-87.5561,97.8,1111122 
DISL,ioos:station:DISL:PPTA:1,2017-04-05T17:00:00Z,30.2791,-87.5561,97.2,1111122 
DISL,ioos:station:DISL:PPTA:1,2017-04-05T17:30:00Z,30.2791,-87.5561,92.7,1111122 
DISL,ioos:station:DISL:PPTA:1,2017-04-05T18:00:00Z,30.2791,-87.5561,89.5,1111122 
DISL,ioos:station:DISL:PPTA:1,2017-04-05T18:30:00Z,30.2791,-87.5561,92.5,1111122 
DISL,ioos:station:DISL:PPTA:1,2017-04-05T19:00:00Z,30.2791,-87.5561,92.3,1111122 
DISL,ioos:station:DISL:PPTA:1,2017-04-05T19:30:00Z,30.2791,-87.5561,86.3,1111122 
DISL,ioos:station:DISL:PPTA:1,2017-04-05T20:00:00Z,30.2791,-87.5561,89.2,1111122 
DISL,ioos:station:DISL:PPTA:1,2017-04-05T20:30:00Z,30.2791,-87.5561,88.0,1111122 
DISL,ioos:station:DISL:PPTA:1,2017-04-05T21:00:00Z,30.2791,-87.5561,89.1,1111122 
DISL,ioos:station:DISL:PPTA:1,2017-04-05T21:30:00Z,30.2791,-87.5561,88.5,1111122 
DISL,ioos:station:DISL:PPTA:1,2017-04-05T22:00:00Z,30.2791,-87.5561,90.9,1111122 
DISL,ioos:station:DISL:PPTA:1,2017-04-05T22:30:00Z,30.2791,-87.5561,91.7,1111122 
DISL,ioos:station:DISL:PPTA:1,2017-04-05T23:00:00Z,30.2791,-87.5561,90.8,1111122 
DISL,ioos:station:DISL:PPTA:1,2017-04-05T23:30:00Z,30.2791,-87.5561,93.4,1111122 
DISL,ioos:station:DISL:PPTA:1,2017-04-06T00:00:00Z,30.2791,-87.5561,95.8,1111122 
DISL,ioos:station:DISL:PPTA:1,2017-04-06T00:30:00Z,30.2791,-87.5561,96.9,1111122 
DISL,ioos:station:DISL:PPTA:1,2017-04-06T01:00:00Z,30.2791,-87.5561,96.4,1111122 
DISL,ioos:station:DISL:PPTA:1,2017-04-06T01:30:00Z,30.2791,-87.5561,95.0,1111122 
DISL,ioos:station:DISL:PPTA:1,2017-04-06T02:00:00Z,30.2791,-87.5561,84.8,1111122 
DISL,ioos:station:DISL:PPTA:1,2017-04-06T02:30:00Z,30.2791,-87.5561,52.64,1111122 
DISL,ioos:station:DISL:PPTA:1,2017-04-06T03:00:00Z,30.2791,-87.5561,43.6,1111122 
DISL,ioos:station:DISL:PPTA:1,2017-04-06T03:30:00Z,30.2791,-87.5561,44.49,1111122 
DISL,ioos:station:DISL:PPTA:1,2017-04-06T04:00:00Z,30.2791,-87.5561,44.39,1111122 
DISL,ioos:station:DISL:PPTA:1,2017-04-06T04:30:00Z,30.2791,-87.5561,49.72,1111122 
DISL,ioos:station:DISL:PPTA:1,2017-04-06T05:00:00Z,30.2791,-87.5561,47.3,1111122 
DISL,ioos:station:DISL:PPTA:1,2017-04-06T05:30:00Z,30.2791,-87.5561,48.85,1111122 
DISL,ioos:station:DISL:PPTA:1,2017-04-06T06:00:00Z,30.2791,-87.5561,49.13,1111122 
DISL,ioos:station:DISL:PPTA:1,2017-04-06T06:30:00Z,30.2791,-87.5561,48.24,1111122 
DISL,ioos:station:DISL:PPTA:1,2017-04-06T07:00:00Z,30.2791,-87.5561,48.19,1111122 
DISL,ioos:station:DISL:PPTA:1,2017-04-06T07:30:00Z,30.2791,-87.5561,48.98,1111122 
DISL,ioos:station:DISL:PPTA:1,2017-04-06T08:00:00Z,30.2791,-87.5561,50.0,1111122 
DISL,ioos:station:DISL:PPTA:1,2017-04-06T08:30:00Z,30.2791,-87.5561,49.18,1111122 
DISL,ioos:station:DISL:PPTA:1,2017-04-06T09:00:00Z,30.2791,-87.5561,49.39,1111122 
DISL,ioos:station:DISL:PPTA:1,2017-04-06T09:30:00Z,30.2791,-87.5561,48.06,1111122 
DISL,ioos:station:DISL:PPTA:1,2017-04-06T10:00:00Z,30.2791,-87.5561,45.19,1111122 
DISL,ioos:station:DISL:PPTA:1,2017-04-06T10:30:00Z,30.2791,-87.5561,44.44,1111122 
DISL,ioos:station:DISL:PPTA:1,2017-04-06T11:00:00Z,30.2791,-87.5561,50.56,1111122 
DISL,ioos:station:DISL:PPTA:1,2017-04-06T11:30:00Z,30.2791,-87.5561,50.12,1111122 
DISL,ioos:station:DISL:PPTA:1,2017-04-06T12:00:00Z,30.2791,-87.5561,53.23,1111122 
DISL,ioos:station:DISL:PPTA:1,2017-04-06T12:30:00Z,30.2791,-87.5561,55.03,1111122 
DISL,ioos:station:DISL:PPTA:1,2017-04-06T13:00:00Z,30.2791,-87.5561,52.6,1111122 
DISL,ioos:station:DISL:PPTA:1,2017-04-06T13:30:00Z,30.2791,-87.5561,50.67,1111122 
DISL,ioos:station:DISL:PPTA:1,2017-04-06T14:00:00Z,30.2791,-87.5561,51.65,1111122 
DISL,ioos:station:DISL:PPTA:1,2017-04-06T14:30:00Z,30.2791,-87.5561,41.78,1111122 
DISL,ioos:station:DISL:PPTA:1,2017-04-06T15:00:00Z,30.2791,-87.5561,38.23,1111122 
DISL,ioos:station:DISL:PPTA:1,2017-04-06T15:30:00Z,30.2791,-87.5561,37.17,1111122 
DISL,ioos:station:DISL:PPTA:1,2017-04-06T16:00:00Z,30.2791,-87.5561,34.27,1111122 
DISL,ioos:station:DISL:PPTA:1,2017-04-06T16:30:00Z,30.2791,-87.5561,32.83,1111122 
DISL,ioos:station:DISL:PPTA:1,2017-04-06T17:00:00Z,30.2791,-87.5561,29.79,1111122 
DISL,ioos:station:DISL:PPTA:1,2017-04-06T17:30:00Z,30.2791,-87.5561,27.54,1111122 
DISL,ioos:station:DISL:PPTA:1,2017-04-06T18:00:00Z,30.2791,-87.5561,28.97,1111122 
DISL,ioos:station:DISL:PPTA:1,2017-04-06T18:30:00Z,30.2791,-87.5561,28.32,1111122 
DISL,ioos:station:DISL:PPTA:1,2017-04-06T19:00:00Z,30.2791,-87.5561,29.75,1111122 
DISL,ioos:station:DISL:PPTA:1,2017-04-06T19:30:00Z,30.2791,-87.5561,25.21,1111122 
DISL,ioos:station:DISL:PPTA:1,2017-04-06T20:00:00Z,30.2791,-87.5561,24.8,1111122 
DISL,ioos:station:DISL:PPTA:1,2017-04-06T20:30:00Z,30.2791,-87.5561,25.62,1111122 
DISL,ioos:station:DISL:PPTA:1,2017-04-06T21:00:00Z,30.2791,-87.5561,27.03,1111122 
DISL,ioos:station:DISL:PPTA:1,2017-04-06T21:30:00Z,30.2791,-87.5561,25.59,1111122 
DISL,ioos:station:DISL:PPTA:1,2017-04-06T22:00:00Z,30.2791,-87.5561,31.19,1111122 
DISL,ioos:station:DISL:PPTA:1,2017-04-06T22:30:00Z,30.2791,-87.5561,28.22,1111122 
DISL,ioos:station:DISL:PPTA:1,2017-04-06T23:00:00Z,30.2791,-87.5561,24.33,1111122 
DISL,ioos:station:DISL:PPTA:1,2017-04-06T23:30:00Z,30.2791,-87.5561,30.48,1111122 
DISL,ioos:station:DISL:PPTA:1,2017-04-07T00:00:00Z,30.2791,-87.5561,33.62,1111122 
DISL,ioos:station:DISL:PPTA:1,2017-04-07T00:30:00Z,30.2791,-87.5561,34.74,1111122 